Weather History for Valdosta Regional, GA

Change the Weather History Date:

Wednesday, February 6, 2013

  Actual Average Record
Temperature  
Mean Temperature 67 °F 52 °F  
Max Temperature 75 °F 65 °F 70 °F (2014)
Min Temperature 58 °F 40 °F 40 °F (2014)
Degree Days  
Heating Degree Days 0 13  
Month to date heating degree days 66 80  
Since 1 July heating degree days 695 1149  
Growing Degree Days 15 (Base 50)    
Moisture  
Dew Point 55 °F    
Average Humidity 70    
Maximum Humidity 87    
Minimum Humidity 53    
Precipitation  
Precipitation T in - 0.18 in (2014)
Month to date precipitation 0.03  
Year to date precipitation 0.79  
Sea Level Pressure  
Sea Level Pressure 30.12 in    
Wind  
Wind Speed 3 mph (East)    
Max Wind Speed 9 mph    
Max Gust Speed 13 mph    
Visibility 10 miles    
Events      
T = Trace of Precipitation, MM = Missing Value Source: NWS Daily Summary

Daily Weather History Graph

Daily Weather History Graph

Search for Another Location

Airport:

Trip Planner

Search our weather history database for the weather conditions in past years. The results will help you decide how hot, cold, wet, or windy it might be!

Date:

Astronomy

Feb. 06, 2013 Rise Set
Actual Time 7:21 AM EST 6:13 PM EST
Civil Twilight 6:56 AM EST 6:38 PM EST
Nautical Twilight 6:27 AM EST 7:07 PM EST
Astronomical Twilight 5:59 AM EST 7:35 PM EST
Moon 3:56 AM EST (2/6) 2:38 PM EST (2/6)
Length of Visible Light 11h 42m
Length of Day
10h 52m
Waning Crescent, 17% of the Moon is Illuminated
Feb 6
Waning Crescent
Feb 10
New
Feb 17
First Quarter
Feb 25
Full
Mar 4
Last Quarter

Hourly Weather History & Observations

Time (EST) Temp. Dew Point Humidity Pressure Visibility Wind Dir Wind Speed Gust Speed Precip Events Conditions
12:53 AM 60.1 °F 55.9 °F 86% 30.09 in 10.0 mi South 3.5 mph - N/A   Overcast
1:53 AM 60.1 °F 55.0 °F 83% 30.08 in 10.0 mi South 3.5 mph - 0.00 in   Overcast
2:53 AM 60.1 °F 54.0 °F 80% 30.07 in 10.0 mi Calm Calm - N/A   Overcast
3:53 AM 60.1 °F 55.0 °F 83% 30.09 in 10.0 mi North 3.5 mph - N/A   Overcast
4:39 AM 60.8 °F 55.4 °F 82% 30.07 in 10.0 mi Calm Calm - N/A   Overcast
4:53 AM 60.1 °F 55.0 °F 83% 30.09 in 10.0 mi NNE 3.5 mph - N/A   Overcast
5:53 AM 60.1 °F 55.0 °F 83% 30.11 in 10.0 mi Calm Calm - N/A   Overcast
6:05 AM 60.8 °F 55.4 °F 82% 30.09 in 10.0 mi East 3.5 mph - N/A   Overcast
6:53 AM 57.9 °F 54.0 °F 87% 30.13 in 10.0 mi Calm Calm - N/A   Mostly Cloudy
7:53 AM 59.0 °F 55.0 °F 87% 30.15 in 10.0 mi Calm Calm - N/A   Overcast
8:17 AM 60.8 °F 55.4 °F 82% 30.13 in 10.0 mi Calm Calm - N/A   Overcast
8:53 AM 62.1 °F 55.0 °F 78% 30.17 in 10.0 mi Calm Calm - N/A   Overcast
9:53 AM 64.0 °F 55.0 °F 73% 30.18 in 10.0 mi Calm Calm - N/A   Overcast
10:53 AM 69.1 °F 55.0 °F 61% 30.18 in 10.0 mi Variable 4.6 mph - N/A   Mostly Cloudy
11:53 AM 70.0 °F 55.0 °F 59% 30.17 in 10.0 mi East 4.6 mph - N/A   Overcast
12:53 PM 73.0 °F 55.0 °F 53% 30.15 in 10.0 mi NE 8.1 mph - N/A   Overcast
1:53 PM 71.1 °F 55.0 °F 57% 30.12 in 10.0 mi NNE 5.8 mph - N/A   Overcast
2:53 PM 73.9 °F 55.0 °F 52% 30.12 in 10.0 mi NE 6.9 mph - N/A   Overcast
3:53 PM 72.0 °F 55.0 °F 55% 30.12 in 10.0 mi East 4.6 mph - N/A   Overcast
4:53 PM 71.1 °F 55.0 °F 57% 30.12 in 10.0 mi ENE 4.6 mph - N/A   Overcast
5:53 PM 70.0 °F 55.0 °F 59% 30.12 in 10.0 mi East 3.5 mph - N/A   Mostly Cloudy
6:53 PM 68.0 °F 55.0 °F 63% 30.11 in 10.0 mi Calm Calm - N/A   Overcast
7:53 PM 68.0 °F 55.0 °F 63% 30.13 in 10.0 mi Calm Calm - N/A   Overcast
8:53 PM 64.9 °F 55.0 °F 70% 30.14 in 10.0 mi SE 3.5 mph - N/A   Scattered Clouds
9:53 PM 64.0 °F 55.0 °F 73% 30.14 in 10.0 mi SE 3.5 mph - N/A   Partly Cloudy
10:53 PM 62.1 °F 55.0 °F 78% 30.14 in 10.0 mi ESE 3.5 mph - N/A   Mostly Cloudy
11:53 PM 62.1 °F 55.9 °F 80% 30.12 in 10.0 mi ESE 4.6 mph - N/A   Overcast